COSMOS 2426 (717)

Last updated on Jan. 17, 2020, 4:32 a.m. UTC

1 29671U 06062B   20015.47693661  .00000008  00000-0  10000-3 0  9991
2 29671  65.0269 273.1164 0019691 172.4600 108.6753  2.12962400101610
UTC
Height (km)
Latitude
Longitude
Inclination
Orbital Period
UTC large
Height (km)
Speed (km/s)
/
Latitude / Longitude
Inclination (degrees)
Orbital Period (minutes)
Azimuth
Elevation
Range (km)
Doppler Factor
iOS Compass Heading
iOS Angle

Next 30 passes for location: Hong Kong

Rise time Rise Azimuth (degrees) Set time Set Azimuth (degrees) Duration Max altitude (degrees)

No matching passes for this satellites